Location: Morehouse Lake Observatory
(43.3628°N, 74.6770°W)
Time: 22:05:52
(UTC-05:00)

Envisat - Pass Details

Date: 28 October 2019
Orbit: 764 x 766 km, 98.1° (Epoch: 13 November)

Event Time Altitude Azimuth Distance (km) Brightness Sun altitude
Rises 20:12:32 0° 206° (SSW) 3,218 6.5 -25.4°
Reaches altitude 10° 20:15:29 10° 224° (SW) 2,297 5.9 -25.9°
Maximum altitude 20:19:02 19° 269° (W) 1,764 5.7 -26.6°
Drops below altitude 10° 20:22:35 10° 313° (NW) 2,308 6.1 -27.2°
Sets 20:25:35 0° 332° (NNW) 3,240 6.7 -27.7°
